Flag for U.S.A. Weather past 2 weeks in New City, New York, U.S.A.

Now
77 °F

Passing clouds.


Feels Like: 79 °F
Forecast: 70 / 87 °F
Wind: 3 mph from South

Location: Westchester County Airport

Current Time: Aug 3, 2015 at 9:49:15 PM

Latest Report: Aug 3, 2015 at 8:56 PM


Visibility: 10 mi

Pressure: 29.77 "Hg

Humidity: 74%

Dew point: 68 °F

Location of New CityLocation

Historic Weather in New City — Graph

°F

New City temperature yesterday

Maximum temperature yesterday: 84 °F (at 12:56 PM)
Minimum temperature yesterday: 64 °F (at 5:56 AM)
Average temperature yesterday: 75 °F

Past Weeks' High & Low Weather Summary

 TemperatureHumidityPressure
High91 °F (Jul 29, 2:56 PM)100% (Jul 30, 5:00 PM)30.02 "Hg (Jul 30, 5:00 PM)
Low61 °F (Jul 23, 5:56 AM)31% (Aug 2, 12:56 PM)29.57 "Hg (Jul 21, 5:56 PM)
Average76 °F65%29.85 "Hg
* Reported Jul 19 7:56 PM — Aug 3 7:56 PM, New City, Weather by CustomWeather, © 2015

Note: Actual official high and low records may vary slightly from our data, if they occured in-between our weather recording intervals... More about our weather records

Advertising

New City weather history for previous 24 hours

 ConditionsComfort  
Time TempWeatherWind HumidityBarometerVisibility
7:56 PM
Mon, Aug 3
79 °FScattered clouds.7 mph69%29.76 "Hg10 mi
6:56 PM82 °FScattered clouds.10 mph60%29.75 "Hg10 mi
5:56 PM84 °FScattered clouds.7 mph53%29.75 "Hg10 mi
4:56 PM85 °FScattered clouds.12 mph48%29.76 "Hg10 mi
3:56 PM85 °FScattered clouds.10 mph45%29.76 "Hg10 mi
2:56 PM88 °FScattered clouds.9 mph42%29.76 "Hg10 mi
1:56 PM87 °FScattered clouds.5 mph45%29.78 "Hg10 mi
12:56 PM86 °FPassing clouds.3 mph43%29.80 "Hg10 mi
11:56 AM84 °FScattered clouds.6 mph45%29.82 "Hg10 mi
10:56 AM84 °FScattered clouds.6 mph43%29.83 "Hg10 mi
9:56 AM81 °FSunny.8 mph51%29.83 "Hg10 mi
8:56 AM78 °FSunny.6 mph56%29.83 "Hg10 mi
7:56 AM75 °FSunny.5 mph66%29.83 "Hg10 mi
6:56 AM73 °FSunny.No wind66%29.83 "Hg10 mi
5:56 AM72 °FClear.3 mph66%29.83 "Hg10 mi
4:56 AM70 °FClear.No wind71%29.83 "Hg10 mi
3:56 AM69 °FClear.No wind81%29.83 "Hg10 mi
2:56 AM70 °FClear.No wind79%29.83 "Hg10 mi
1:56 AM68 °FClear.5 mph90%29.84 "Hg10 mi
12:56 AM68 °FClear.No wind90%29.85 "Hg10 mi
11:56 PM
Sun, Aug 2
69 °FClear.No wind87%29.85 "Hg10 mi
10:56 PM70 °FClear.No wind81%29.85 "Hg10 mi
9:56 PM71 °FClear.6 mph73%29.87 "Hg10 mi
Weather by CustomWeather, © 2015

See weather overviewHow to use our weather pages